HYLAS 2

Last updated on Sun Jun 21 2026 00:03:05 GMT+0000 (Coordinated Universal Time)

1 38741U 12043B 26171.37759707 -.00000262 00000+0 00000+0 0 9994 2 38741 2.4365 81.0337 0002469 28.4508 222.4626 1.00272037 50804
UTC large
Height (km)
Speed (km/s)
/
Latitude / Longitude
Inclination (degrees)
Orbital Period (minutes)
Azimuth
Elevation
Range (km)
Doppler Factor

Next 0 passes for location: London (51.5072 / 0.1276)

No passes found over London.
HYLAS 2